sat.trackr.live / text

‹ back to catalog

STARLINK-32018

NORAD 60105 · 2024-117Q

PAYLOAD ACTIVE UNKNOWN

§ Identity

Operator
Country
US
Launch date
2024-06-23
Launch site
AFETR
Launch vehicle
Mass (kg)
RCS (m²)

Purposes: comms

External: N2YO · Heavens-Above · Gunter

§ Orbital elements

Epoch: 2026-05-25T00:42:17.791776Z

Period
94.11 min
Inclination
53.1619°
Eccentricity
0.0001254
Mean motion
15.30190890 rev/d
Perigee alt
474.4 km
Apogee alt
476.1 km
Semi-major
6,853.4 km
B*
3.6027e-6
RAAN
42.5869°
Arg perigee
96.0566°
Mean anomaly
264.0578°
Rev number
10,857

§ Raw data

STARLINK-320181 60105U 24117Q   26145.02937259 -.00000252  00000+0  36027-5 0  99942 60105  53.1619  42.5869 0001254  96.0566 264.0578 15.30190890108576

JSON: /api/v1/satellites/60105 · /tle

For live sub-satellite position, see the globe view (requires WebGL).

§ Visibility from observer

Set your observer location to see the next 7 days of passes ≥ 10°. The values pass through the URL so the page stays shareable.

No JS? Fill the form by hand. The geolocation button needs JavaScript.